Погода в Чечулине

Россия / Новгородская область     58°39′57″N   31°22′14″E
темп.,
°C
ветер,
м/с
пор.,
м/с
влажн.,
%
обл.,
%
осадки,
мм/ч
давл.,
гПа
погр.,
м
27 ноября, сб
сб2700:000юв1288100 0.0 100271
03:00+1вюв2598100 1.6 1002297
06:00+1ююв1399100 0.8 1002135
09:000в1298100 1.7 1003153
12:000св4796100 0.3 1003320
15:00−1св51196100 1.1 1001419
18:00−1ссв61496100 1.8 998513
21:00−2ссв61396100 4.4 997599
28 ноября, вс
вс2800:00−2ссв51295100 1.4 996551
03:00−3ссв51195100 2.6 995474
06:00−3ссв41095100 0.7 996505
09:00−3с3896100 1.5 997406
12:00−3ссз2595100 1.3 998376
15:00−3ссз249474 2.0 1000324
18:00−5зсз1398100 0.1 100368
21:00−8с239978 0.1 100544
29 ноября, пн
пн2900:00−7св259874 0.1 1007116
03:00−9всв259892 0.1 1008106
06:00−8св379693 0.0 1007173
09:00−8св3795100 0.0 1007191
12:00−6св3893100 0.0 1005247
15:00−5св51193100 0.1 1001326
18:00−5св51294100 0.3 998398
21:00−4св51294100 0.6 993426
30 ноября, вт
вт3000:00−4св51296100 3.3 989458
03:00−4ссв51196100 4.8 985411
06:00−4ссв41095100 1.3 982383
09:00−5с4995100 2.5 980382
12:00−4ссз4995100 0.8 979408
15:00−3ссз41096100 2.3 979704
18:00−5сз51193100 0.8 981602
21:00−7зсз4119088 0.9 983540
1 декабря, ср
ср100:00−7з3109491 0.1 984478
03:00−7з4109391 0.1 985428
06:00−8зюз3109370 0.0 987333
09:00−9зюз31094100 0.1 988381
12:00−8юз4119394 0.0 989443
15:00−7юз4109299 0.1 990598
18:00−7юз4129292 0.1 990514
21:00−7юз5129299 0.1 990547